Simultaneous Nadir Overpasses (SNOs) Predictions

Prediction of SNOs between GOES-16 and LANDSAT-8 Satellite Orbit:

Table of predicted SNOs for the next 14.0 days since TLE Epoch: 8/28/2021
Index Date Time (GOES-16) GOES-16 Lat,Lon LANDSAT-8 Lat,Lon Distance(km) Time Diff (sec)
1 08/30/2021 03:03:43 -0.06, -75.21 0.36, -73.18 231.00 80
2 08/30/2021 15:27:39 0.08, -75.23 0.72, -78.34 352.46 80
3 09/01/2021 15:15:28 0.08, -75.25 0.12, -75.37 14.68 80
4 09/03/2021 15:00:38 0.08, -75.27 -0.54, -72.42 323.49 80
5 09/04/2021 03:24:42 -0.09, -75.25 -0.59, -77.61 267.98 80
6 09/06/2021 03:09:51 -0.09, -75.28 0.02, -74.65 70.79 80
7 09/08/2021 02:57:41 -0.08, -75.31 0.68, -71.70 410.03 80
8 09/08/2021 15:21:37 0.10, -75.34 0.41, -76.86 173.11 80
9 09/10/2021 15:06:46 0.09, -75.37 -0.19, -73.90 166.82 80
